マクノート彗星

C/2009 F4 ( McNaught )

English version
Home page
Updated on January 23, 2012

---------------------------------------------------------------------

・ プロフィール

発見日 2009年3月19日
発見光度 17.8等
発見者 R. H. McNaught (Siding Spring)

・ 写真集

・ 軌道要素

Epoch 2011 Dec. 25.0 TT = JDT 2455920.5
T 2011 Dec. 31.91076 TT                                 MPC
q   5.4547169            (2000.0)            P               Q
z  -0.0002827      Peri.  260.38590     +0.04752363     +0.61014549
 +/-0.0000007      Node    53.58433     +0.16285543     +0.77643041
e   1.0015420      Incl.   79.34741     -0.98550475     +0.15772855
From 554 observations 2009 Mar. 19-2011 Nov. 20, mean residual 0".4.

・ 星図

・ 光度変化

        m1 = 0.5 + 5 logΔ + 12.5 log r

---------------------------------------------------------------------

軌道要素はM.P.E.C. 2011-W48に掲載されたものです。
星図はステラナビゲータ Ver.8 (アストロアーツ) で作成したものです。
光度グラフはComet for Windowsで作成したものです。

---------------------------------------------------------------------

Copyright(C) Seiichi Yoshida (comet@aerith.net). All rights reserved.